Regional Weather Roundup
Issued by NWS

Home | Current Version | Previous Version | Text Only | Print | Product List | Glossary Off
Versions: 1 2 3 4 5 6 7 8 9 10 11 12 13 14 15 16 17 18 19 20 21 22 23 24 25 26 27 28 29 30 31 32 33 34 35 36 37 38 39 40 41 42 43 44 45 46 47 48 49 50

366
ASUS43 KMPX 242301
RWRMN
WEATHER ROUNDUP FOR MINNESOTA
NATIONAL WEATHER SERVICE TWIN CITIES/CHANHASSEN MN
600 PM CDT SAT SEP 24 2016


NOTE: "FAIR" INDICATES FEW OR NO CLOUDS BELOW 12,000 FEET WITH NO
SIGNIFICANT WEATHER AND/OR OBSTRUCTIONS TO VISIBILITY. N/A MEANS
CURRENT SKY AND/OR WEATHER CONDITIONS ARE NOT AVAILABLE.

MNZ060>063-068>070-250000-
   Twin Cities Metro

CITY           SKY/WX    TMP DP  RH WIND       PRES   REMARKS
TWIN CITIES    CLOUDY    69  63  81 E18       30.00S
ST PAUL        CLOUDY    68  63  84 SE16      30.01F
CRYSTAL        CLOUDY    69  62  78 SE13      29.98F
BLAINE         CLOUDY    70  66  88 SE15G21   29.99F
LAKEVILLE      CLOUDY    68  64  88 SE12G20   30.00S
EDEN PRAIRIE   MOSUNNY   72  64  76 SE13      29.97S
LAKEVILLE      CLOUDY    68  64  88 SE12G20   30.00S
SOUTH ST PAUL  CLOUDY    68  64  86 SE9       30.01S
LAKE ELMO      CLOUDY    68  63  83 SE9       30.04S
$$
MNZ001>005-007-008-013>017-022>024-027-028-250000-
   Northwest Minnesota

CITY           SKY/WX    TMP DP  RH WIND       PRES   REMARKS
BEMIDJI        CLOUDY    64  61  88 SE14G23   29.94R
HALLOCK        CLOUDY    73  66  78 SE16      29.79R
ROSEAU         PTSUNNY   70  63  78 SE13G21   29.86R
THIEF RVR FALL CLOUDY    70  63  78 SE17      29.86R
FOSSTON        PTSUNNY   66  61  82 SE13G20   29.89R
DETROIT LAKES  CLOUDY    66  63  88 SE15      29.91R FOG
MOORHEAD       CLOUDY    73  64  73 SE13G21   29.82S
PARK RAPIDS    CLOUDY    67  61  81 SE14      29.94R
MAHNOMEN       CLOUDY    67  62  84 SE13G22   29.88R
$$
MNZ006-009>011-018-025>026-250000-
   North Central Minnesota

CITY           SKY/WX    TMP DP  RH WIND       PRES   REMARKS
BAUDETTE       MOSUNNY   68  60  75 SE14      29.91S
FLAG ISLAND    SUNNY     64  61  88 SE3       29.89F
INTL FALLS     CLOUDY    65  59  81 SE15      29.99S
WASKISH        CLOUDY    64  61  88 SE14G22   29.94R
BIG FORK       CLOUDY    63  59  88 SE12      30.00R
GRAND RAPIDS   CLOUDY    63  60  90 SE13      30.01S
COOK           CLOUDY    61  57  88 SE7       30.05R
WALKER         CLOUDY    64  60  89 SE9G16    29.95S
$$
MNZ012-019>021-037-250000-
   Northeast Minnesota

CITY           SKY/WX    TMP DP  RH WIND       PRES   REMARKS
DULUTH         CLOUDY    62  59  90 E10       30.08R
ELY            CLOUDY    61  54  77 SE12      30.08R
HIBBING        CLOUDY    60  59  96 SE13      30.05R FOG
EVELETH        CLOUDY    61  56  85 E5        30.07R
DULUTH HARBOR  CLOUDY    61  57  88 NE15      30.07R
TWO HARBORS    CLOUDY    63  57  82 E8        30.07R
SILVER BAY     CLOUDY    61  57  88 NE8       30.09R
GRAND MARAIS     N/A     62  53  72 NE10      30.12F
G MARAIS ARPRT MOCLDY    55  48  76 E5        30.15F
$$
MNZ029>031-032-039>041-046>048-054>057-064-250000-
   West Central Minnesota

CITY           SKY/WX    TMP DP  RH WIND       PRES   REMARKS
FERGUS FALLS   RAIN      70  66  88 SE14      29.88R
MORRIS         RAIN      70  66  88 S10       29.88R
ALEXANDRIA     CLOUDY    69  66  90 SE13      29.92R
ELBOW LAKE     TSTM      71  67  84 SE15      29.87R
WADENA         CLOUDY    64  63  94 SE13      29.93R FOG
GLENWOOD       CLOUDY    70  66  88 SE12      29.92S
BENSON         RAIN      66  63  88 SW10      29.89R
MADISON        LGT RAIN  72  70  94 E8        29.85F
WILLMAR        CLOUDY    66  66 100 SE12      29.97R
$$
MNZ033>034-036-042>043-049>051-058-059-250000-
   Central Minnesota

CITY           SKY/WX    TMP DP  RH WIND       PRES   REMARKS
ST CLOUD       CLOUDY    67  65  93 E10       29.96F
SAUK CENTRE    FAIR      68  64  88 E10G16    29.92F
PAYNESVILLE    CLOUDY    71  69  95 SE12      29.94R
AITKIN         CLOUDY    68  59  73 SE7       30.00R
PINE RIVER     CLOUDY    64  61  88 SE14      30.00S
BRAINERD       CLOUDY    66  62  87 SE10      29.98S
STAPLES        CLOUDY    64  63  94 SE9       29.95R
LONG PRAIRIE   PTSUNNY   64  63  94 E14       29.93F FOG
LITTLE FALLS   CLOUDY    66  61  82 SE12      29.96S
LITCHFIELD     CLOUDY    73  68  83 SE12      29.94S
BUFFALO        CLOUDY    69  63  82 E8        29.98F
MAPLE LAKE     CLOUDY    70  66  87 SE9       29.98S
HUTCHINSON     MOSUNNY   76  68  75 E12       29.95R
$$
MNZ037-044-045-052-053-250000-
   East Central Minnesota

CITY           SKY/WX    TMP DP  RH WIND       PRES   REMARKS
PRINCETON      CLOUDY    70  64  83 E10G16    29.99F
MORA           CLOUDY    64  61  88 SE7       30.04S
CAMBRIDGE      CLOUDY    70  61  73 E8        29.99F
MOOSE LAKE     CLOUDY    64  61  88 SE5       30.03R
HINCKLEY       CLOUDY    66  63  88 SE8       30.03S
CLOQUET        CLOUDY    61  57  88 E8        30.07R
MCGREGOR       CLOUDY    64  61  88 SE9       30.02S
$$
MNZ071>073-080-081-089-090-097-098-250000-
   Southwest Minnesota

CITY           SKY/WX    TMP DP  RH WIND       PRES   REMARKS
MONTEVIDEO     LGT RAIN  68  66  94 S8        29.91F
GRANITE FALLS  HVY RAIN  68  66  92 E5        29.92F
CANBY          CLOUDY    70  67  92 SE6       29.88R
MARSHALL       CLOUDY    67  65  93 SE7       29.89S
REDWOOD FALLS  TSTM      68  65  90 CALM      29.92F FOG
OLIVIA         TSTM      68  64  88 S3        29.95S
PIPESTONE      CLOUDY    70  66  88 S7        29.90R
WINDOM         CLOUDY   N/A N/A N/A SE9       29.92F
WORTHINGTON    CLOUDY    70  68  93 S6        29.91R
JACKSON        CLOUDY    72  70  94 S10       29.94F
TRACY          LGT RAIN  67  66  97 SE6       29.92R
$$
MNZ065>067-074>077-082>085-091>093-250000-
   South Central Minnesota

CITY           SKY/WX    TMP DP  RH WIND       PRES   REMARKS
MANKATO        CLOUDY    78  67  68 SE12      29.95S
ST JAMES       CLOUDY    79  66  65 SE8       29.94R
FAIRMONT       CLOUDY    79  68  69 SE13      29.93R
GLENCOE        CLOUDY    78  69  73 SE12      29.94S
FARIBAULT      MOSUNNY   73  64  73 E13       30.00S
OWATONNA       MOSUNNY   73  64  73 E13       29.99S
WASECA         CLOUDY    77  66  69 SE10G17   29.99R
ALBERT LEA     MOSUNNY   77  66  69 SE9       29.98S
$$
MNZ078>079-086>088-094>096-250000-
   Southeast Minnesota

CITY           SKY/WX    TMP DP  RH WIND       PRES   REMARKS
ROCHESTER      CLOUDY    68  65  90 SE14      30.05R
RED WING       CLOUDY    70  63  78 SE14      30.03F
DODGE CENTER   CLOUDY    70  63  78 SE10G16   30.03S
WINONA         CLOUDY    70  63  78 SE9       30.07R
AUSTIN         CLOUDY    72  64  78 SE9       30.01R
PRESTON        CLOUDY    67  62  84 SE10      30.07R
$$
ABBREVIATIONS USED IN REMARKS
   TC - TEMPERATURES IN CELSIUS
  WCI - WIND CHILL INDEX
   HX - HEAT INDEX
  VSB - VISIBILITY
$$




USA.gov is the U.S. government's official web portal to all federal, state and local government web resources and services.